Redding, CA

5:21 PM PDT on October 18, 2019 (GMT -0700)
Redding Municipal

Weather History for KRDD - September, 2019

Change the Weather History Date:

Thursday, September 19, 2019

  Actual Average Record
Temperature  
Mean Temperature 65 °F -  
Max Temperature 80 °F 90 °F 109 °F (1952)
Min Temperature 50 °F 57 °F 46 °F (1986)
Degree Days  
Heating Degree Days 0    
Cooling Degree Days 0    
Growing Degree Days 15 (Base 50)    
Moisture  
Dew Point 46 °F    
Average Humidity 63    
Maximum Humidity 100    
Minimum Humidity 25    
Precipitation  
Precipitation 0.00 in 0.02 in 3.24 in (1959)
Month to date precipitation 0.24 0.36  
Year to date precipitation 32.51 21.49  
Sea Level Pressure  
Sea Level Pressure 29.93 in    
Wind  
Wind Speed 5 mph (North)    
Max Wind Speed 18 mph    
Max Gust Speed 26 mph    
Visibility 10 miles    
Events      
T = Trace of Precipitation, MM = Missing Value Source: NWS Daily Summary

Daily Weather History Graph

Daily Weather History Graph

Search for Another Location

Airport or City:

Astronomy

Sep. 19, 2019 Rise Set
Actual Time 6:53 AM PDT 7:11 PM PDT
Civil Twilight 6:26 AM PDT 7:38 PM PDT
Nautical Twilight 5:54 AM PDT 8:10 PM PDT
Astronomical Twilight 5:21 AM PDT 8:43 PM PDT
Moon 10:22 PM PDT 12:03 PM PDT
Length of Visible Light 13h 12m
Length of Day
12h 17m
Waning Gibbous, 73% of the Moon is Illuminated
Sep 19
Waning Gibbous
Sep 21
Last Quarter
Sep 28
New
Oct 5
First Quarter
Oct 13
Full

Hourly Weather History & Observations

Time (PDT) Temp. Dew Point Humidity Pressure Visibility Wind Dir Wind Speed Gust Speed Precip Events Conditions
12:53 AM 55.0 °F 52.0 °F 89% 29.92 in 10.0 mi Calm Calm - N/A   Clear
1:53 AM 55.0 °F 52.0 °F 89% 29.92 in 10.0 mi North 5.8 mph - N/A   Clear
2:53 AM 53.1 °F 51.1 °F 93% 29.92 in 10.0 mi NW 3.5 mph - N/A   Clear
4:53 AM 53.1 °F 51.1 °F 93% 29.92 in 10.0 mi Calm Calm - N/A   Clear
5:53 AM 51.1 °F 48.9 °F 92% 29.92 in 10.0 mi Calm Calm - N/A   Clear
6:53 AM 50.0 °F 48.9 °F 96% 29.94 in 10.0 mi North 3.5 mph - N/A   Partly Cloudy
7:53 AM 55.0 °F 51.1 °F 86% 29.95 in 10.0 mi NNW 3.5 mph - N/A   Clear
8:53 AM 60.1 °F 53.1 °F 78% 29.95 in 10.0 mi NNE 6.9 mph - N/A   Partly Cloudy
9:53 AM 64.9 °F 51.1 °F 61% 29.95 in 10.0 mi WNW 5.8 mph - N/A   Clear
10:53 AM 70.0 °F 48.9 °F 47% 29.94 in 10.0 mi NNW 6.9 mph - N/A   Partly Cloudy
11:53 AM 73.9 °F 46.0 °F 37% 29.94 in 10.0 mi North 8.1 mph - N/A   Clear
12:53 PM 73.9 °F 43.0 °F 33% 29.93 in 10.0 mi Variable 3.5 mph - N/A   Partly Cloudy
1:53 PM 77.0 °F 44.1 °F 31% 29.92 in 10.0 mi NNW 8.1 mph 17.3 mph N/A   Scattered Clouds
2:53 PM 77.0 °F 43.0 °F 30% 29.92 in 10.0 mi North 9.2 mph - N/A   Mostly Cloudy
3:53 PM 79.0 °F 39.0 °F 24% 29.91 in 10.0 mi NNE 17.3 mph 21.9 mph N/A   Partly Cloudy
4:53 PM 79.0 °F 39.9 °F 25% 29.90 in 10.0 mi North 11.5 mph - N/A   Clear
5:53 PM 79.0 °F 41.0 °F 26% 29.90 in 10.0 mi NNE 12.7 mph - N/A   Clear
6:53 PM 75.9 °F 41.0 °F 29% 29.90 in 10.0 mi North 8.1 mph - N/A   Clear
7:53 PM 72.0 °F 42.1 °F 34% 29.90 in 10.0 mi North 5.8 mph - N/A   Clear
8:53 PM 68.0 °F 44.1 °F 42% 29.91 in 10.0 mi North 9.2 mph 17.3 mph N/A   Clear
9:53 PM 64.9 °F 45.0 °F 48% 29.93 in 10.0 mi North 8.1 mph - N/A   Clear
10:53 PM 66.0 °F 44.1 °F 45% 29.94 in 10.0 mi North 6.9 mph - N/A   Clear
11:53 PM 62.1 °F 46.0 °F 56% 29.95 in 10.0 mi North 5.8 mph - N/A   Clear